Regional Weather Roundup
Issued by NWS

Home | Current Version | Previous Version | Text Only | Print | Product List | Glossary Off
Versions: 1 2 3 4 5 6 7 8 9 10 11 12 13 14 15 16 17 18 19 20 21 22 23 24 25 26 27 28 29 30 31 32 33 34 35 36 37 38 39 40 41 42 43 44 45 46 47 48 49 50

387
ASUS43 KIND 220509
RWRIN

WEATHER ROUNDUP FOR INDIANA
NATIONAL WEATHER SERVICE INDIANAPOLIS IN
100 AM EDT SAT JUL 22 2017

NOTE: "FAIR" INDICATES FEW OR NO CLOUDS BELOW 12,000 FEET WITH NO
SIGNIFICANT WEATHER AND/OR OBSTRUCTIONS TO VISIBILITY.

* - STATION DOES NOT REPORT WEATHER SUCH AS PRECIPITATION OR FOG.

+ - STATION NOT QUALITY CONTROLLED BY THE NATIONAL WEATHER SERVICE.
    USE DATA WITH CAUTION...ESPECIALLY DEWPOINT AND RELATIVE
    HUMIDITY OBSERVATIONS.

INZ001>003-010>013-019-020-220600-
NORTHWEST INDIANA

CITY           SKY/WX    TMP DP  RH WIND       PRES   REMARKS
GARY /AIRPORT/ CLOUDY    74  72  93 S7G17     29.90S
KNOX *+        CLOUDY    72  70  94 NE12      29.89F
LA PORTE +     TSTM      71  70  97 SW7       29.93R
MICHIGAN CITY+ RAIN      72  72 100 S5        29.91R
MONTICELLO +   CLOUDY    74  72  92 S3        29.86F
RENSSELAER +   CLOUDY    73  70  88 CALM      29.88R THUNDER
VALPARAISO     LGT RAIN  73  70  90 SE5       29.92S

$$

LMZ046-743>745-220600-
SOUTHERN LAKE MICHIGAN

STATION/POSITION TIME  TEMP    WIND        PRES    WAVE
                       AIR SEA DIR/SP/G            HT
                 (UTC) (F)     (DEG/KT/KT) (MB)    (FT)
BURNS HARBOR     0440   73     190/ 17/ 21 1012.9S
MICHIGAN CITY    0440   73     150/  5/  7   N/A
5NW MICH CITY    0500   74 75  200/ 14/ 17   N/A     1

$$

INZ004-005-014>016-021>024-220600-
NORTH CENTRAL INDIANA

CITY           SKY/WX    TMP DP  RH WIND       PRES   REMARKS
GOSHEN         LGT RAIN  73  69  87 NE7       29.92F
LOGANSPORT +   CLOUDY    72  68  88 E5        29.90F
PERU/GRISSOM   CLOUDY    74  73  98 SE5       29.89F
ROCHESTER +    TSTM      75  73  94 E8        29.89F
SOUTH BEND     TSTM      71  71 100 SE9       29.91F
WARSAW +       RAIN      72  72 100 NE5       29.92F

$$

INZ006>009-017-018-025>027-220600-
NORTHEAST INDIANA

CITY           SKY/WX    TMP DP  RH WIND       PRES   REMARKS
AUBURN +       CLOUDY    73  70  88 W5        29.96S
FORT WAYNE     CLOUDY    75  71  87 CALM      29.93F
HUNTINGTON +   CLOUDY    74  73  96 CALM      29.92F
KENDALLVILLE + RAIN      74  72  93 N5        29.96S

$$

INZ028-029-035-036-043>045-051>053-220600-
WEST CENTRAL INDIANA

CITY           SKY/WX    TMP DP  RH WIND       PRES   REMARKS
GREENCASTLE +  LGT RAIN  77  75  94 S10G16    29.93S
LAFAYETTE      CLOUDY    75  72  90 SE3       29.86F
TERRE HAUTE    CLOUDY    79  74  84 S7        29.89F

$$

INZ030>032-037>040-046>048-054>057-064-065-220600-
CENTRAL INDIANA

CITY           SKY/WX    TMP DP  RH WIND       PRES   REMARKS
CP ATTERBURY + MOCLDY    75  73  94 CALM      29.93F
FRANKFORT +    CLOUDY    78  76  94 S3        29.91F
GREENWOOD *+   CLOUDY    79  72  80 SE6       29.93F
INDIANAPOLIS   CLOUDY    78  75  90 SE10      29.90F
-EAGLE CREEK   CLOUDY    78  74  87 S3        29.90F
KOKOMO +       CLOUDY    74  72  93 CALM      29.92F
MARION +       LGT RAIN  75  73  94 S9        29.93F
MT COMFORT *+  CLOUDY    75  73  94 SE6       29.94F
SHELBYVILLE    PTCLDY    79  72  79 SE7       29.92F
ZIONSVILLE +   CLOUDY    76  72  87 SE6       29.92F

$$

INZ033-034-041-042-049-050-058-059-220600-
EAST CENTRAL INDIANA

CITY           SKY/WX    TMP DP  RH WIND       PRES   REMARKS
MUNCIE         CLOUDY    79  72  79 W13G18    29.95F
RICHMOND +     PTCLDY    72  70  94 SE5       29.98F

$$

INZ060-061-067>069-081>083-085>088-220600-
SOUTHWEST INDIANA

CITY           SKY/WX    TMP DP  RH WIND       PRES   REMARKS
EVANSVILLE     CLEAR     83  74  74 SW5       29.94F
HUNTINGBURG *+ CLEAR     82  75  79 S7        29.95F

$$

INZ062-063-066-070>080-084-089>092-220600-
SOUTH CENTRAL AND SOUTHEAST INDIANA

CITY           SKY/WX    TMP DP  RH WIND       PRES   REMARKS
BEDFORD +      CLEAR     81  73  78 S3        29.93F
BLOOMINGTON    PTCLDY    81  75  82 S6        29.92F
MADISON *+     PTCLDY    79  73  83 CALM      29.97F
NORTH VERNON + CLEAR     77  75  94 SE5       29.95F
SEYMOUR +      CLEAR     79  79 100 SE5       29.93F FOG

$$





USA.gov is the U.S. government's official web portal to all federal, state and local government web resources and services.